Retour au catalogue

STARLINK-34453

ActifCommunicationsVLEO
NORAD 64441·PAYLOAD·🇺🇸 United States

Lancé Jun 18, 2025 depuis Cape Canaveral Space Force Station

Loading…

Prochains Passages (prochaines 24 heures)

TLE

FraisSource: CelesTrak SupGP

Époque: Sep 15, 2026, 03:12 UTC

1 64441C 25130D   26258.13381944  .00002188  00000+0  64628-4 0  2582
2 64441  53.1583 284.8163 0001239  84.2121 183.0702 15.34390261    17

Suivez STARLINK-34453 en temps réel avec AllMySat

Download on the App Store